When you browse on this site, cookies collect data to enhance your experience and personalize the content and advertising you see.
Visit our Privacy Policy to learn more. By continuing to use the site, you agree to this use of cookies and data.
  • In Czech Republic
  • List of Countries
  • For 7 days
  • Water Temperature
  • Satellite Maps
  • Weather Map
  • Weather Widgets
  • user-avatar
    Login

    Hourly Weather Montreal

    Today, 18 April, Thursday

    Time Temperature Precipitation Wind Pressure Humidity
    00:00 +5°C° 0 mm 3 mps 762 mmHg 56%
    01:00 +4°C° 0 mm 3 mps 761 mmHg 55%
    02:00 +4°C° 0 mm 3 mps 760 mmHg 57%
    03:00 +4°C° 0 mm 3 mps 760 mmHg 59%
    04:00 +3°C° 0 mm 3 mps 760 mmHg 61%
    05:00 +4°C° 0.2 mm 4 mps 759 mmHg 64%
    06:00 +4°C° 0.2 mm 4 mps 758 mmHg 66%
    07:00 +6°C° 0 mm 5 mps 758 mmHg 63%
    08:00 +6°C° 0.6 mm 5 mps 757 mmHg 66%
    09:00 +5°C° 0.6 mm 6 mps 756 mmHg 70%
    10:00 +5°C° 0.6 mm 6 mps 756 mmHg 73%
    11:00 +9°C° 0 mm 6 mps 755 mmHg 66%
    12:00 +14°C° 0 mm 7 mps 754 mmHg 59%
    13:00 +17°C° 0 mm 7 mps 753 mmHg 52%
    14:00 +16°C° 0.1 mm 7 mps 752 mmHg 56%
    15:00 +15°C° 0.1 mm 6 mps 751 mmHg 60%
    16:00 +15°C° 0.1 mm 6 mps 750 mmHg 64%
    17:00 +14°C° 0.3 mm 7 mps 750 mmHg 67%
    18:00 +13°C° 0.3 mm 8 mps 749 mmHg 70%
    19:00 +13°C° 0.3 mm 9 mps 748 mmHg 73%
    20:00 +15°C° 0 mm 9 mps 748 mmHg 74%
    21:00 +15°C° 0 mm 8 mps 748 mmHg 75%
    22:00 +15°C° 0 mm 8 mps 747 mmHg 76%
    23:00 +15°C° 0.2 mm 7 mps 747 mmHg 78%

    Tomorrow, 19 April, Friday

    Time Temperature Precipitation Wind Pressure Humidity
    00:00 +16°C° 0.2 mm 6 mps 747 mmHg 81%
    01:00 +16°C° 0.2 mm 6 mps 747 mmHg 83%
    02:00 +16°C° 0.1 mm 5 mps 747 mmHg 84%
    03:00 +15°C° 0.1 mm 5 mps 747 mmHg 85%
    04:00 +15°C° 0.1 mm 5 mps 747 mmHg 85%
    05:00 +15°C° 0.4 mm 4 mps 747 mmHg 88%
    06:00 +14°C° 0.4 mm 3 mps 748 mmHg 90%
    07:00 +15°C° 0.4 mm 2 mps 749 mmHg 92%
    08:00 +14°C° 0.6 mm 2 mps 749 mmHg 93%
    09:00 +13°C° 0.6 mm 3 mps 750 mmHg 93%
    10:00 +12°C° 0.6 mm 3 mps 750 mmHg 93%
    11:00 +10°C° 1.5 mm 4 mps 750 mmHg 91%
    12:00 +8°C° 1.5 mm 4 mps 750 mmHg 88%
    13:00 +6°C° 1.5 mm 5 mps 750 mmHg 86%
    14:00 +6°C° 1.4 mm 5 mps 750 mmHg 87%
    15:00 +6°C° 1.4 mm 5 mps 750 mmHg 87%
    16:00 +6°C° 1.4 mm 5 mps 750 mmHg 88%
    17:00 +6°C° 0.7 mm 5 mps 750 mmHg 88%
    18:00 +5°C° 0.7 mm 6 mps 750 mmHg 87%
    19:00 +5°C° 0.7 mm 6 mps 751 mmHg 87%
    20:00 +5°C° 2.1 mm 6 mps 751 mmHg 88%
    21:00 +5°C° 2.1 mm 6 mps 751 mmHg 89%
    22:00 +5°C° 2.1 mm 6 mps 751 mmHg 89%
    23:00 +5°C° 3.5 mm 6 mps 751 mmHg 90%

    Day after tomorrow, 20 April, Saturday

    Time Temperature Precipitation Wind Pressure Humidity
    00:00 +5°C° 3.5 mm 7 mps 751 mmHg 90%
    01:00 +5°C° 3.5 mm 7 mps 751 mmHg 91%
    02:00 +4°C° 1.5 mm 7 mps 751 mmHg 91%
    03:00 +4°C° 1.5 mm 7 mps 751 mmHg 90%
    04:00 +4°C° 1.5 mm 8 mps 751 mmHg 90%
    05:00 +4°C° 1.8 mm 7 mps 752 mmHg 90%
    06:00 +4°C° 1.8 mm 7 mps 752 mmHg 90%
    07:00 +4°C° 1.8 mm 6 mps 753 mmHg 89%
    08:00 +5°C° 0.3 mm 6 mps 753 mmHg 89%
    09:00 +5°C° 0.3 mm 6 mps 753 mmHg 88%
    10:00 +5°C° 0.3 mm 6 mps 753 mmHg 87%
    11:00 +7°C° 0.1 mm 6 mps 753 mmHg 86%
    12:00 +7°C° 0.1 mm 6 mps 753 mmHg 85%
    13:00 +8°C° 0.1 mm 6 mps 752 mmHg 85%
    14:00 +8°C° 0.1 mm 6 mps 752 mmHg 86%
    15:00 +8°C° 0.1 mm 5 mps 751 mmHg 87%
    16:00 +9°C° 0.1 mm 5 mps 751 mmHg 88%
    17:00 +8°C° 0 mm 4 mps 751 mmHg 91%
    18:00 +8°C° 0 mm 4 mps 751 mmHg 93%
    19:00 +9°C° 0 mm 3 mps 751 mmHg 96%
    20:00 +10°C° 0 mm 3 mps 752 mmHg 93%
    21:00 +11°C° 0 mm 3 mps 753 mmHg 90%
    22:00 +11°C° 0 mm 3 mps 753 mmHg 87%
    23:00 +11°C° 0 mm 3 mps 754 mmHg 85%

    21 April, Sunday

    Time Temperature Precipitation Wind Pressure Humidity
    00:00 +11°C° 0 mm 4 mps 754 mmHg 82%
    01:00 +11°C° 0 mm 4 mps 755 mmHg 79%
    02:00 +11°C° 0 mm 4 mps 755 mmHg 80%
    03:00 +10°C° 0 mm 4 mps 755 mmHg 80%
    04:00 +10°C° 0 mm 4 mps 755 mmHg 80%
    05:00 +10°C° 0 mm 4 mps 755 mmHg 81%
    06:00 +11°C° 0 mm 3 mps 756 mmHg 81%
    07:00 +11°C° 0 mm 3 mps 756 mmHg 81%
    08:00 +13°C° 0 mm 3 mps 756 mmHg 73%
    09:00 +16°C° 0 mm 3 mps 756 mmHg 65%
    10:00 +18°C° 0 mm 3 mps 756 mmHg 57%
    11:00 +19°C° 0 mm 3 mps 756 mmHg 56%
    12:00 +19°C° 0 mm 2 mps 756 mmHg 54%
    13:00 +19°C° 0 mm 2 mps 756 mmHg 52%
    14:00 +19°C° 0 mm 2 mps 756 mmHg 54%
    15:00 +18°C° 0 mm 2 mps 756 mmHg 56%
    16:00 +18°C° 0 mm 2 mps 756 mmHg 59%
    17:00 +17°C° 0 mm 2 mps 757 mmHg 61%
    18:00 +16°C° 0 mm 1 mps 757 mmHg 63%
    19:00 +16°C° 0 mm 1 mps 758 mmHg 65%
    20:00 +15°C° 0 mm 1 mps 758 mmHg 68%
    21:00 +15°C° 0 mm 2 mps 759 mmHg 70%
    22:00 +14°C° 0 mm 2 mps 760 mmHg 73%
    23:00 +13°C° 0 mm 2 mps 760 mmHg 75%

    22 April, Monday

    Time Temperature Precipitation Wind Pressure Humidity
    00:00 +13°C° 0 mm 2 mps 760 mmHg 78%
    01:00 +12°C° 0 mm 2 mps 760 mmHg 80%
    02:00 +12°C° 0 mm 2 mps 760 mmHg 83%
    03:00 +11°C° 0 mm 1 mps 760 mmHg 85%
    04:00 +10°C° 0 mm 1 mps 761 mmHg 88%
    05:00 +11°C° 0 mm 1 mps 761 mmHg 85%
    06:00 +12°C° 0 mm 1 mps 761 mmHg 83%
    07:00 +12°C° 0 mm 1 mps 762 mmHg 80%
    08:00 +14°C° 0 mm 1 mps 761 mmHg 73%
    09:00 +16°C° 0 mm 2 mps 761 mmHg 66%
    10:00 +18°C° 0 mm 2 mps 761 mmHg 59%
    11:00 +19°C° 0 mm 2 mps 760 mmHg 55%
    12:00 +20°C° 0 mm 2 mps 760 mmHg 51%
    13:00 +21°C° 0 mm 2 mps 759 mmHg 47%
    14:00 +23°C° 0 mm 2 mps 759 mmHg 46%
    15:00 +23°C° 0 mm 2 mps 759 mmHg 46%
    16:00 +23°C° 0 mm 2 mps 759 mmHg 45%
    17:00 +21°C° 0 mm 2 mps 759 mmHg 51%
    18:00 +19°C° 0 mm 2 mps 759 mmHg 56%
    19:00 +18°C° 0 mm 2 mps 759 mmHg 61%
    20:00 +17°C° 0 mm 2 mps 760 mmHg 67%
    21:00 +16°C° 0 mm 2 mps 760 mmHg 73%
    22:00 +15°C° 0 mm 2 mps 760 mmHg 78%
    23:00 +14°C° 0 mm 2 mps 760 mmHg 80%

    23 April, Tuesday

    Time Temperature Precipitation Wind Pressure Humidity
    00:00 +13°C° 0 mm 2 mps 760 mmHg 82%
    01:00 +13°C° 0 mm 2 mps 759 mmHg 84%
    02:00 +12°C° 0.1 mm 2 mps 760 mmHg 82%
    03:00 +11°C° 0.1 mm 3 mps 760 mmHg 80%
    04:00 +10°C° 0.1 mm 3 mps 760 mmHg 79%
    05:00 +10°C° 0.1 mm 3 mps 761 mmHg 76%
    06:00 +9°C° 0.1 mm 3 mps 761 mmHg 72%
    07:00 +8°C° 0.1 mm 4 mps 762 mmHg 69%
    08:00 +10°C° 0 mm 4 mps 762 mmHg 62%
    09:00 +12°C° 0 mm 4 mps 762 mmHg 55%
    10:00 +13°C° 0 mm 4 mps 762 mmHg 48%
    11:00 +14°C° 0 mm 4 mps 762 mmHg 42%
    12:00 +15°C° 0 mm 4 mps 762 mmHg 37%
    13:00 +17°C° 0 mm 4 mps 762 mmHg 31%
    14:00 +17°C° 0 mm 4 mps 762 mmHg 30%
    15:00 +17°C° 0 mm 4 mps 762 mmHg 28%
    16:00 +17°C° 0 mm 4 mps 762 mmHg 27%
    17:00 +15°C° 0 mm 4 mps 762 mmHg 29%
    18:00 +13°C° 0 mm 4 mps 763 mmHg 32%
    19:00 +12°C° 0 mm 4 mps 763 mmHg 35%
    20:00 +11°C° 0 mm 4 mps 764 mmHg 35%
    21:00 +9°C° 0 mm 5 mps 764 mmHg 35%
    22:00 +8°C° 0 mm 5 mps 764 mmHg 35%
    23:00 +7°C° 0 mm 5 mps 765 mmHg 37%
    Show more